Time,TemperatureF,DewpointF,PressureIn,WindDirection,WindDirectionDegrees,WindSpeedMPH,WindSpeedGustMPH,Humidity,HourlyPrecipIn,Conditions,Clouds,dailyrainin,SolarRadiationWatts/m^2,SoftwareType,DateUTC
2013-10-15 00:03:00,57.4,44.1,30.00,NNW,331,0.0,0.0,61,0.00,,,0.00,0.0,WeatherDisplay:10.37,2013-10-15 07:03:00,
2013-10-15 00:08:00,57.2,43.9,30.00,NNW,331,0.0,0.0,61,0.00,,,0.00,0.0,WeatherDisplay:10.37,2013-10-15 07:08:00,
2013-10-15 00:13:00,57.1,43.8,30.00,NNW,331,0.0,0.0,61,0.00,,,0.00,0.0,WeatherDisplay:10.37,2013-10-15 07:13:00,
2013-10-15 00:18:00,57.0,43.7,30.00,NNW,331,0.0,0.0,61,0.00,,,0.00,0.0,WeatherDisplay:10.37,2013-10-15 07:18:00,
2013-10-15 00:23:00,56.8,43.5,30.00,NNW,331,0.0,0.0,61,0.00,,,0.00,0.0,WeatherDisplay:10.37,2013-10-15 07:23:00,
2013-10-15 00:28:00,56.7,43.8,30.00,NNW,331,0.0,0.0,62,0.00,,,0.00,0.0,WeatherDisplay:10.37,2013-10-15 07:28:00,
2013-10-15 00:33:00,56.6,44.1,30.00,NNW,331,0.0,0.0,63,0.00,,,0.00,0.0,WeatherDisplay:10.37,2013-10-15 07:33:00,
2013-10-15 00:38:00,56.6,43.7,30.00,NNW,331,0.0,0.0,62,0.00,,,0.00,0.0,WeatherDisplay:10.37,2013-10-15 07:38:00,
2013-10-15 00:43:00,56.6,43.7,30.00,NNW,331,0.0,0.0,62,0.00,,,0.00,0.0,WeatherDisplay:10.37,2013-10-15 07:43:00,
2013-10-15 00:48:00,56.4,43.5,30.00,NNW,331,0.0,0.0,62,0.00,,,0.00,0.0,WeatherDisplay:10.37,2013-10-15 07:48:00,
2013-10-15 00:53:00,56.3,43.4,30.00,NNW,331,0.0,0.0,62,0.00,,,0.00,0.0,WeatherDisplay:10.37,2013-10-15 07:53:00,
2013-10-15 00:58:00,56.2,42.9,30.00,NNW,331,0.0,0.0,61,0.00,,,0.00,0.0,WeatherDisplay:10.37,2013-10-15 07:58:00,
2013-10-15 01:03:00,56.0,43.2,30.00,NNW,331,0.0,0.0,62,0.00,,,0.00,0.0,WeatherDisplay:10.37,2013-10-15 08:03:00,
2013-10-15 01:08:00,55.9,43.5,30.00,NNW,331,0.0,0.0,63,0.00,,,0.00,0.0,WeatherDisplay:10.37,2013-10-15 08:08:00,
2013-10-15 01:13:00,55.8,43.0,30.00,NNW,331,0.0,0.0,62,0.00,,,0.00,0.0,WeatherDisplay:10.37,2013-10-15 08:13:00,
2013-10-15 01:18:00,55.7,42.9,30.00,NNW,331,0.0,0.0,62,0.00,,,0.00,0.0,WeatherDisplay:10.37,2013-10-15 08:18:00,
2013-10-15 01:23:00,55.5,42.7,30.00,NNW,331,0.0,0.0,62,0.00,,,0.00,0.0,WeatherDisplay:10.37,2013-10-15 08:23:00,
2013-10-15 01:28:00,55.4,43.0,30.00,NNW,331,0.0,0.0,63,0.00,,,0.00,0.0,WeatherDisplay:10.37,2013-10-15 08:28:00,
2013-10-15 01:33:00,55.3,42.9,30.00,NNW,331,0.0,0.0,63,0.00,,,0.00,0.0,WeatherDisplay:10.37,2013-10-15 08:33:00,
2013-10-15 01:38:00,55.2,42.8,30.01,NNW,331,0.0,0.0,63,0.00,,,0.00,0.0,WeatherDisplay:10.37,2013-10-15 08:38:00,
2013-10-15 01:43:00,55.1,42.7,30.00,NNW,331,0.0,0.0,63,0.00,,,0.00,0.0,WeatherDisplay:10.37,2013-10-15 08:43:00,
2013-10-15 01:48:00,55.0,42.6,30.00,NNW,331,0.0,0.0,63,0.00,,,0.00,0.0,WeatherDisplay:10.37,2013-10-15 08:48:00,
2013-10-15 01:50:00,55.0,42.6,30.00,NNW,331,0.0,0.0,63,0.00,,,0.00,0.0,WeatherDisplay:10.37,2013-10-15 08:50:00,
2013-10-15 01:55:00,54.8,42.4,30.01,NNW,331,0.0,0.0,63,0.00,,,0.00,0.0,WeatherDisplay:10.37,2013-10-15 08:55:00,
2013-10-15 02:00:00,54.7,42.8,30.00,NNW,331,0.0,0.0,64,0.00,,,0.00,0.0,WeatherDisplay:10.37,2013-10-15 09:00:00,
2013-10-15 02:05:00,54.6,42.7,30.00,NNW,331,0.0,0.0,64,0.00,,,0.00,0.0,WeatherDisplay:10.37,2013-10-15 09:05:00,
2013-10-15 02:10:00,54.7,42.8,30.00,NNW,331,0.0,0.0,64,0.00,,,0.00,0.0,WeatherDisplay:10.37,2013-10-15 09:10:00,
2013-10-15 02:15:00,54.8,42.9,30.00,NNW,331,0.0,0.0,64,0.00,,,0.00,0.0,WeatherDisplay:10.37,2013-10-15 09:15:00,
2013-10-15 02:20:00,54.7,42.8,30.00,NNW,331,0.0,0.0,64,0.00,,,0.00,0.0,WeatherDisplay:10.37,2013-10-15 09:20:00,
2013-10-15 02:25:00,54.6,43.1,30.00,NNW,331,0.0,0.0,65,0.00,,,0.00,0.0,WeatherDisplay:10.37,2013-10-15 09:25:00,
2013-10-15 02:30:00,54.4,42.9,30.00,NNW,331,0.0,0.0,65,0.00,,,0.00,0.0,WeatherDisplay:10.37,2013-10-15 09:30:00,
2013-10-15 02:35:00,54.5,43.0,30.00,NNW,331,0.0,0.0,65,0.00,,,0.00,0.0,WeatherDisplay:10.37,2013-10-15 09:35:00,
2013-10-15 02:40:00,54.4,42.9,30.00,NNW,331,0.0,0.0,65,0.00,,,0.00,0.0,WeatherDisplay:10.37,2013-10-15 09:40:00,
2013-10-15 02:45:00,54.4,42.9,30.00,NNW,331,0.0,0.0,65,0.00,,,0.00,0.0,WeatherDisplay:10.37,2013-10-15 09:45:00,
2013-10-15 02:50:00,54.2,42.7,30.00,NNW,331,0.0,0.0,65,0.00,,,0.00,0.0,WeatherDisplay:10.37,2013-10-15 09:50:00,
2013-10-15 02:55:00,54.1,43.0,30.00,NNW,331,0.0,0.0,66,0.00,,,0.00,0.0,WeatherDisplay:10.37,2013-10-15 09:55:00,
2013-10-15 03:00:00,54.0,43.3,30.00,NNW,331,0.0,0.0,67,0.00,,,0.00,0.0,WeatherDisplay:10.37,2013-10-15 10:00:00,
2013-10-15 03:05:00,54.0,42.9,30.00,NNW,331,0.0,0.0,66,0.00,,,0.00,0.0,WeatherDisplay:10.37,2013-10-15 10:05:00,
2013-10-15 03:10:00,54.1,43.0,30.00,NNW,331,0.0,0.0,66,0.00,,,0.00,0.0,WeatherDisplay:10.37,2013-10-15 10:10:00,
2013-10-15 03:15:00,54.1,43.0,30.00,NNW,331,0.0,0.0,66,0.00,,,0.00,0.0,WeatherDisplay:10.37,2013-10-15 10:15:00,
2013-10-15 03:20:00,54.0,42.9,29.99,NNW,331,0.0,0.0,66,0.00,,,0.00,0.0,WeatherDisplay:10.37,2013-10-15 10:20:00,
2013-10-15 03:25:00,53.9,42.8,29.99,NNW,331,0.0,0.0,66,0.00,,,0.00,0.0,WeatherDisplay:10.37,2013-10-15 10:25:00,
2013-10-15 03:30:00,53.7,42.6,29.99,NNW,331,0.0,0.0,66,0.00,,,0.00,0.0,WeatherDisplay:10.37,2013-10-15 10:30:00,
2013-10-15 03:35:00,53.6,42.9,29.99,NNW,331,0.0,0.0,67,0.00,,,0.00,0.0,WeatherDisplay:10.37,2013-10-15 10:35:00,
2013-10-15 03:40:00,53.6,42.9,29.99,NNW,331,0.0,0.0,67,0.00,,,0.00,0.0,WeatherDisplay:10.37,2013-10-15 10:40:00,
2013-10-15 03:45:00,53.5,42.8,29.99,NNW,331,0.0,0.0,67,0.00,,,0.00,0.0,WeatherDisplay:10.37,2013-10-15 10:45:00,
2013-10-15 03:50:00,53.4,42.7,29.99,NNW,331,0.0,0.0,67,0.00,,,0.00,0.0,WeatherDisplay:10.37,2013-10-15 10:50:00,
2013-10-15 03:55:00,53.3,43.0,29.99,NNW,331,0.0,0.0,68,0.00,,,0.00,0.0,WeatherDisplay:10.37,2013-10-15 10:55:00,
2013-10-15 04:00:00,53.3,42.6,29.99,NNW,331,0.0,0.0,67,0.00,,,0.00,0.0,WeatherDisplay:10.37,2013-10-15 11:00:00,
2013-10-15 04:05:00,53.2,42.5,29.99,NNW,331,0.0,0.0,67,0.00,,,0.00,0.0,WeatherDisplay:10.37,2013-10-15 11:05:00,
2013-10-15 04:10:00,53.3,42.6,29.99,NNW,331,0.0,0.0,67,0.00,,,0.00,0.0,WeatherDisplay:10.37,2013-10-15 11:10:00,
2013-10-15 04:15:00,53.2,42.5,29.99,NNW,331,0.0,0.0,67,0.00,,,0.00,0.0,WeatherDisplay:10.37,2013-10-15 11:15:00,
2013-10-15 04:20:00,53.1,42.4,29.99,NNW,331,0.0,0.0,67,0.00,,,0.00,0.0,WeatherDisplay:10.37,2013-10-15 11:20:00,
2013-10-15 04:25:00,53.0,42.7,29.99,NNW,331,0.0,0.0,68,0.00,,,0.00,0.0,WeatherDisplay:10.37,2013-10-15 11:25:00,
2013-10-15 04:30:00,53.0,42.7,29.99,NNW,331,0.0,0.0,68,0.00,,,0.00,0.0,WeatherDisplay:10.37,2013-10-15 11:30:00,
2013-10-15 04:35:00,53.1,43.2,29.99,NNW,331,0.0,0.0,69,0.00,,,0.00,0.0,WeatherDisplay:10.37,2013-10-15 11:35:00,
2013-10-15 04:40:00,53.2,43.7,29.99,NNW,331,0.0,0.0,70,0.00,,,0.00,0.0,WeatherDisplay:10.37,2013-10-15 11:40:00,
2013-10-15 04:45:00,53.2,43.7,29.99,NNW,331,0.0,0.0,70,0.00,,,0.00,0.0,WeatherDisplay:10.37,2013-10-15 11:45:00,
2013-10-15 04:50:00,53.2,43.7,29.99,NNW,331,0.0,0.0,70,0.00,,,0.00,0.0,WeatherDisplay:10.37,2013-10-15 11:50:00,
2013-10-15 04:55:00,53.0,43.5,29.99,NNW,331,0.0,0.0,70,0.00,,,0.00,0.0,WeatherDisplay:10.37,2013-10-15 11:55:00,
2013-10-15 05:00:00,53.0,43.8,29.99,NNW,331,0.0,0.0,71,0.00,,,0.00,0.0,WeatherDisplay:10.37,2013-10-15 12:00:00,
2013-10-15 05:05:00,52.9,43.7,29.99,NNW,331,0.0,0.0,71,0.00,,,0.00,0.0,WeatherDisplay:10.37,2013-10-15 12:05:00,
2013-10-15 05:11:00,52.8,43.7,29.99,NNW,331,0.0,0.0,71,0.00,,,0.00,0.0,WeatherDisplay:10.37,2013-10-15 12:11:00,
2013-10-15 05:16:00,52.7,43.9,29.99,NNW,331,0.0,0.0,72,0.00,,,0.00,0.0,WeatherDisplay:10.37,2013-10-15 12:16:00,
2013-10-15 05:21:00,52.8,44.7,29.99,NNW,331,0.0,0.0,74,0.00,,,0.00,0.0,WeatherDisplay:10.37,2013-10-15 12:21:00,
2013-10-15 05:26:00,53.0,44.9,30.00,NNW,331,0.0,0.0,74,0.00,,,0.00,0.0,WeatherDisplay:10.37,2013-10-15 12:26:00,
2013-10-15 05:31:00,52.9,44.8,29.99,NNW,331,0.0,0.0,74,0.00,,,0.00,0.0,WeatherDisplay:10.37,2013-10-15 12:31:00,
2013-10-15 05:36:00,52.8,44.7,30.00,NNW,331,0.0,0.0,74,0.00,,,0.00,0.0,WeatherDisplay:10.37,2013-10-15 12:36:00,
2013-10-15 05:41:00,52.8,44.7,29.99,NNW,331,0.0,0.0,74,0.00,,,0.00,0.0,WeatherDisplay:10.37,2013-10-15 12:41:00,
2013-10-15 05:46:00,52.8,45.1,29.99,NNW,331,0.0,0.0,75,0.00,,,0.00,0.0,WeatherDisplay:10.37,2013-10-15 12:46:00,
2013-10-15 05:51:00,52.7,45.0,29.99,NNW,331,0.0,0.0,75,0.00,,,0.00,0.0,WeatherDisplay:10.37,2013-10-15 12:51:00,
2013-10-15 05:56:00,52.5,44.8,29.99,NNW,331,0.0,0.0,75,0.00,,,0.00,0.0,WeatherDisplay:10.37,2013-10-15 12:56:00,
2013-10-15 06:01:00,52.5,45.2,29.99,NNW,331,0.0,0.0,76,0.00,,,0.00,0.0,WeatherDisplay:10.37,2013-10-15 13:01:00,
2013-10-15 06:06:00,52.6,45.6,29.99,NNW,331,0.0,0.0,77,0.00,,,0.00,0.0,WeatherDisplay:10.37,2013-10-15 13:06:00,
2013-10-15 06:11:00,52.7,45.7,30.00,NNW,331,0.0,0.0,77,0.00,,,0.00,0.0,WeatherDisplay:10.37,2013-10-15 13:11:00,
2013-10-15 06:16:00,52.8,45.8,30.00,NNW,331,0.0,0.0,77,0.00,,,0.00,0.0,WeatherDisplay:10.37,2013-10-15 13:16:00,
2013-10-15 06:21:00,52.7,45.7,30.00,NNW,331,0.0,0.0,77,0.00,,,0.00,0.0,WeatherDisplay:10.37,2013-10-15 13:21:00,
2013-10-15 06:26:00,52.6,45.6,30.00,NNW,331,0.0,0.0,77,0.00,,,0.00,0.0,WeatherDisplay:10.37,2013-10-15 13:26:00,
2013-10-15 06:31:00,52.4,45.4,30.00,NNW,331,0.0,0.0,77,0.00,,,0.00,0.0,WeatherDisplay:10.37,2013-10-15 13:31:00,
2013-10-15 06:36:00,52.3,45.6,30.00,NNW,331,0.0,0.0,78,0.00,,,0.00,0.0,WeatherDisplay:10.37,2013-10-15 13:36:00,
2013-10-15 06:41:00,52.3,46.0,30.00,NNW,331,0.0,0.0,79,0.00,,,0.00,0.0,WeatherDisplay:10.37,2013-10-15 13:41:00,
2013-10-15 06:46:00,52.3,46.0,30.00,NNW,331,0.0,0.0,79,0.00,,,0.00,0.0,WeatherDisplay:10.37,2013-10-15 13:46:00,
2013-10-15 06:51:00,52.3,46.0,30.00,NNW,331,0.0,0.0,79,0.00,,,0.00,0.0,WeatherDisplay:10.37,2013-10-15 13:51:00,
2013-10-15 06:56:00,52.2,45.9,30.00,NNW,331,0.0,0.0,79,0.00,,,0.00,0.0,WeatherDisplay:10.37,2013-10-15 13:56:00,
2013-10-15 07:01:00,52.1,45.8,30.00,NNW,331,0.0,0.0,79,0.00,,,0.00,0.0,WeatherDisplay:10.37,2013-10-15 14:01:00,
2013-10-15 07:06:00,52.0,46.0,30.00,NNW,331,0.0,0.0,80,0.00,,,0.00,0.0,WeatherDisplay:10.37,2013-10-15 14:06:00,
2013-10-15 07:11:00,51.9,45.9,30.00,NNW,331,0.0,0.0,80,0.00,,,0.00,0.0,WeatherDisplay:10.37,2013-10-15 14:11:00,
2013-10-15 07:16:00,51.7,45.7,30.00,NNW,331,0.0,0.0,80,0.00,,,0.00,0.0,WeatherDisplay:10.37,2013-10-15 14:16:00,
2013-10-15 07:21:00,51.7,46.1,30.00,NNW,331,0.0,0.0,81,0.00,,,0.00,7.0,WeatherDisplay:10.37,2013-10-15 14:21:00,
2013-10-15 07:26:00,51.6,46.0,30.00,NNW,331,0.0,0.0,81,0.00,,,0.00,11.0,WeatherDisplay:10.37,2013-10-15 14:26:00,
2013-10-15 07:31:00,51.7,46.4,30.00,NNW,331,0.0,0.0,82,0.00,,,0.00,23.0,WeatherDisplay:10.37,2013-10-15 14:31:00,
2013-10-15 07:36:00,51.8,46.8,30.01,NNW,331,0.0,0.0,83,0.00,,,0.00,39.0,WeatherDisplay:10.37,2013-10-15 14:36:00,
2013-10-15 07:41:00,52.1,47.1,30.01,NNW,331,0.0,0.0,83,0.00,,,0.00,51.0,WeatherDisplay:10.37,2013-10-15 14:41:00,
2013-10-15 07:46:00,52.4,47.7,30.01,NNW,331,0.0,0.0,84,0.00,,,0.00,67.0,WeatherDisplay:10.37,2013-10-15 14:46:00,
2013-10-15 07:51:00,52.9,48.2,30.01,NNW,331,0.0,0.0,84,0.00,,,0.00,81.0,WeatherDisplay:10.37,2013-10-15 14:51:00,
2013-10-15 07:56:00,53.3,48.3,30.01,NNW,331,0.0,0.0,83,0.00,,,0.00,97.0,WeatherDisplay:10.37,2013-10-15 14:56:00,
2013-10-15 08:01:00,53.7,48.7,30.01,NNW,331,0.0,0.0,83,0.00,,,0.00,113.0,WeatherDisplay:10.37,2013-10-15 15:01:00,
2013-10-15 08:06:00,54.1,49.1,30.01,NNW,331,0.0,0.0,83,0.00,,,0.00,128.0,WeatherDisplay:10.37,2013-10-15 15:06:00,
2013-10-15 08:11:00,55.1,50.4,30.01,NNW,331,0.0,0.0,84,0.00,,,0.00,144.0,WeatherDisplay:10.37,2013-10-15 15:11:00,
2013-10-15 08:16:00,56.4,51.3,30.01,NNW,331,0.0,0.0,83,0.00,,,0.00,155.0,WeatherDisplay:10.37,2013-10-15 15:16:00,
2013-10-15 08:21:00,57.9,52.4,30.01,NNW,331,0.0,0.0,82,0.00,CLR,,0.00,171.0,WeatherDisplay:10.37,2013-10-15 15:21:00,
2013-10-15 08:26:00,59.0,52.1,30.01,NNW,331,0.0,0.0,78,0.00,CLR,,0.00,188.0,WeatherDisplay:10.37,2013-10-15 15:26:00,
2013-10-15 08:31:00,59.9,52.7,30.01,NNW,331,0.0,0.0,77,0.00,CLR,,0.00,200.0,WeatherDisplay:10.37,2013-10-15 15:31:00,
2013-10-15 08:36:00,60.7,52.4,30.01,NNW,331,0.0,0.0,74,0.00,CLR,,0.00,214.0,WeatherDisplay:10.37,2013-10-15 15:36:00,
2013-10-15 08:41:00,61.5,52.0,30.01,NNW,331,0.0,0.0,71,0.00,CLR,,0.00,230.0,WeatherDisplay:10.37,2013-10-15 15:41:00,
2013-10-15 08:46:00,62.3,52.4,30.01,NNW,331,0.0,0.0,70,0.00,CLR,,0.00,246.0,WeatherDisplay:10.37,2013-10-15 15:46:00,
2013-10-15 08:51:00,63.2,52.5,30.02,NNW,331,0.0,0.0,68,0.00,CLR,,0.00,258.0,WeatherDisplay:10.37,2013-10-15 15:51:00,
2013-10-15 08:56:00,63.9,52.7,30.02,NNW,331,0.0,0.0,67,0.00,CLR,,0.00,271.0,WeatherDisplay:10.37,2013-10-15 15:56:00,
2013-10-15 09:01:00,64.3,52.7,30.02,NNW,331,0.0,0.0,66,0.00,CLR,,0.00,288.0,WeatherDisplay:10.37,2013-10-15 16:01:00,
2013-10-15 09:06:00,64.9,53.3,30.02,NNW,331,0.0,0.0,66,0.00,CLR,,0.00,304.0,WeatherDisplay:10.37,2013-10-15 16:06:00,
2013-10-15 09:11:00,65.4,53.3,30.02,NNW,331,0.0,0.0,65,0.00,CLR,,0.00,318.0,WeatherDisplay:10.37,2013-10-15 16:11:00,
2013-10-15 09:16:00,66.1,53.1,30.02,NNW,330,0.0,0.0,63,0.00,CLR,,0.00,332.0,WeatherDisplay:10.37,2013-10-15 16:16:00,
2013-10-15 09:21:00,66.5,52.6,30.02,NE,56,0.0,0.0,61,0.00,CLR,,0.00,343.0,WeatherDisplay:10.37,2013-10-15 16:21:00,
2013-10-15 09:26:00,66.7,52.8,30.01,East,86,0.2,3.5,61,0.00,CLR,,0.00,355.0,WeatherDisplay:10.37,2013-10-15 16:26:00,
2013-10-15 09:31:00,66.8,52.0,30.02,East,97,0.7,2.3,59,0.00,CLR,,0.00,367.0,WeatherDisplay:10.37,2013-10-15 16:31:00,
2013-10-15 09:36:00,66.9,51.6,30.02,SE,127,0.9,2.3,58,0.00,CLR,,0.00,383.0,WeatherDisplay:10.37,2013-10-15 16:36:00,
2013-10-15 09:41:00,67.0,50.8,30.02,SE,146,0.0,3.5,56,0.00,CLR,,0.00,396.0,WeatherDisplay:10.37,2013-10-15 16:41:00,
2013-10-15 09:46:00,67.3,50.1,30.02,SE,146,1.7,3.5,54,0.00,CLR,,0.00,410.0,WeatherDisplay:10.37,2013-10-15 16:46:00,
2013-10-15 09:51:00,67.6,49.9,30.02,SE,146,0.3,1.2,53,0.00,CLR,,0.00,424.0,WeatherDisplay:10.37,2013-10-15 16:51:00,
2013-10-15 09:56:00,67.7,47.8,30.02,SE,146,0.0,1.2,49,0.00,CLR,,0.00,434.0,WeatherDisplay:10.37,2013-10-15 16:56:00,
2013-10-15 10:01:00,67.7,48.4,30.02,SE,146,1.2,4.6,50,0.00,CLR,,0.00,448.0,WeatherDisplay:10.37,2013-10-15 17:01:00,
2013-10-15 10:06:00,67.8,47.4,30.02,SSE,147,4.2,4.6,48,0.00,CLR,,0.00,462.0,WeatherDisplay:10.37,2013-10-15 17:06:00,
2013-10-15 10:11:00,67.9,46.9,30.02,SSE,157,3.0,5.8,47,0.00,CLR,,0.00,473.0,WeatherDisplay:10.37,2013-10-15 17:11:00,
2013-10-15 10:16:00,68.3,46.7,30.02,SSE,156,1.3,2.3,46,0.00,CLR,,0.00,483.0,WeatherDisplay:10.37,2013-10-15 17:16:00,
2013-10-15 10:21:00,68.8,46.0,30.02,SSE,157,2.0,4.0,44,0.00,CLR,,0.00,496.0,WeatherDisplay:10.37,2013-10-15 17:21:00,
2013-10-15 10:26:00,69.2,46.9,30.02,SSE,156,0.5,4.6,45,0.00,CLR,,0.00,504.0,WeatherDisplay:10.37,2013-10-15 17:26:00,
2013-10-15 10:32:00,69.6,46.7,30.02,SSE,156,1.7,3.5,44,0.00,CLR,,0.00,515.0,WeatherDisplay:10.37,2013-10-15 17:32:00,
2013-10-15 10:37:00,69.9,46.4,30.02,SSE,160,0.8,3.5,43,0.00,CLR,,0.00,524.0,WeatherDisplay:10.37,2013-10-15 17:37:00,
2013-10-15 10:42:00,70.1,45.9,30.02,SSE,160,1.1,3.5,42,0.00,CLR,,0.00,534.0,WeatherDisplay:10.37,2013-10-15 17:42:00,
2013-10-15 10:47:00,70.3,46.1,30.01,SE,130,2.5,5.0,42,0.00,CLR,,0.00,545.0,WeatherDisplay:10.37,2013-10-15 17:47:00,
2013-10-15 10:52:00,70.4,46.2,30.01,SE,146,1.6,3.5,42,0.00,CLR,,0.00,552.0,WeatherDisplay:10.37,2013-10-15 17:52:00,
2013-10-15 10:57:00,70.8,46.6,30.02,SE,146,2.5,3.5,42,0.00,CLR,,0.00,559.0,WeatherDisplay:10.37,2013-10-15 17:57:00,
2013-10-15 11:02:00,71.0,45.5,30.01,SE,146,0.5,3.5,40,0.00,CLR,,0.00,568.0,WeatherDisplay:10.37,2013-10-15 18:02:00,
2013-10-15 11:07:00,71.0,44.8,30.01,SE,146,0.0,1.0,39,0.00,CLR,,0.00,575.0,WeatherDisplay:10.37,2013-10-15 18:07:00,
2013-10-15 11:12:00,70.8,41.8,30.01,SE,146,0.5,2.3,35,0.00,CLR,,0.00,584.0,WeatherDisplay:10.37,2013-10-15 18:12:00,
2013-10-15 11:17:00,70.8,39.5,30.01,East,86,1.9,3.5,32,0.00,CLR,,0.00,592.0,WeatherDisplay:10.37,2013-10-15 18:17:00,
2013-10-15 11:22:00,70.3,38.2,30.01,East,92,2.3,4.6,31,0.00,CLR,,0.00,599.0,WeatherDisplay:10.37,2013-10-15 18:22:00,
2013-10-15 11:27:00,69.8,39.4,30.01,ESE,113,3.7,4.6,33,0.00,CLR,,0.00,603.0,WeatherDisplay:10.37,2013-10-15 18:27:00,
2013-10-15 11:32:00,70.1,40.4,30.01,ESE,116,0.0,0.0,34,0.00,CLR,,0.00,610.0,WeatherDisplay:10.37,2013-10-15 18:32:00,
2013-10-15 11:37:00,70.1,39.6,30.01,NNE,21,2.1,4.6,33,0.00,CLR,,0.00,612.0,WeatherDisplay:10.37,2013-10-15 18:37:00,
2013-10-15 11:42:00,70.3,39.0,30.00,NE,56,3.7,6.9,32,0.00,CLR,,0.00,619.0,WeatherDisplay:10.37,2013-10-15 18:42:00,
2013-10-15 11:47:00,70.5,40.0,30.00,East,100,2.7,5.8,33,0.00,CLR,,0.00,624.0,WeatherDisplay:10.37,2013-10-15 18:47:00,
2013-10-15 11:52:00,70.9,40.3,30.01,NE,41,1.8,4.6,33,0.00,CLR,,0.00,628.0,WeatherDisplay:10.37,2013-10-15 18:52:00,
2013-10-15 11:57:00,71.6,39.3,30.00,ESE,119,5.6,8.1,31,0.00,CLR,,0.00,633.0,WeatherDisplay:10.37,2013-10-15 18:57:00,
2013-10-15 12:02:00,71.8,40.3,30.00,ESE,115,2.9,5.0,32,0.00,CLR,,0.00,636.0,WeatherDisplay:10.37,2013-10-15 19:02:00,
2013-10-15 12:07:00,71.9,39.6,30.00,ESE,117,3.1,5.8,31,0.00,CLR,,0.00,638.0,WeatherDisplay:10.37,2013-10-15 19:07:00,
2013-10-15 12:12:00,72.4,40.0,30.00,SE,137,4.1,5.8,31,0.00,CLR,,0.00,642.0,WeatherDisplay:10.37,2013-10-15 19:12:00,
2013-10-15 12:17:00,72.8,40.4,30.00,SE,134,1.0,4.6,31,0.00,CLR,,0.00,643.0,WeatherDisplay:10.37,2013-10-15 19:17:00,
2013-10-15 12:22:00,72.8,40.4,30.00,ESE,108,1.5,5.8,31,0.00,CLR,,0.00,640.0,WeatherDisplay:10.37,2013-10-15 19:22:00,
2013-10-15 12:27:00,72.5,39.3,30.00,ESE,102,2.8,4.6,30,0.00,CLR,,0.00,647.0,WeatherDisplay:10.37,2013-10-15 19:27:00,
2013-10-15 12:32:00,72.8,40.4,30.00,ESE,117,3.8,5.8,31,0.00,CLR,,0.00,647.0,WeatherDisplay:10.37,2013-10-15 19:32:00,
2013-10-15 12:37:00,73.0,39.7,29.99,East,101,3.0,6.0,30,0.00,CLR,,0.00,647.0,WeatherDisplay:10.37,2013-10-15 19:37:00,
2013-10-15 12:42:00,73.1,39.8,29.99,ESE,111,3.1,3.5,30,0.00,CLR,,0.00,649.0,WeatherDisplay:10.37,2013-10-15 19:42:00,
2013-10-15 12:47:00,73.1,39.8,29.99,ENE,57,1.9,3.5,30,0.00,CLR,,0.00,649.0,WeatherDisplay:10.37,2013-10-15 19:47:00,
2013-10-15 12:52:00,73.2,38.1,29.99,ENE,66,5.3,6.9,28,0.00,CLR,,0.00,650.0,WeatherDisplay:10.37,2013-10-15 19:52:00,
2013-10-15 12:57:00,73.3,38.2,29.98,ENE,62,3.2,3.5,28,0.00,CLR,,0.00,649.0,WeatherDisplay:10.37,2013-10-15 19:57:00,
2013-10-15 13:02:00,73.6,38.5,29.98,ENE,62,1.8,6.0,28,0.00,CLR,,0.00,645.0,WeatherDisplay:10.37,2013-10-15 20:02:00,
2013-10-15 13:07:00,74.1,38.9,29.98,ESE,111,2.1,5.8,28,0.00,CLR,,0.00,645.0,WeatherDisplay:10.37,2013-10-15 20:07:00,
2013-10-15 13:12:00,74.7,37.5,29.97,NE,45,1.4,4.6,26,0.00,CLR,,0.00,643.0,WeatherDisplay:10.37,2013-10-15 20:12:00,
2013-10-15 13:17:00,75.3,37.0,29.97,East,89,2.1,5.8,25,0.00,CLR,,0.00,642.0,WeatherDisplay:10.37,2013-10-15 20:17:00,
2013-10-15 13:22:00,75.6,37.3,29.97,ENE,66,4.4,6.9,25,0.00,CLR,,0.00,640.0,WeatherDisplay:10.37,2013-10-15 20:22:00,
2013-10-15 13:27:00,75.7,37.4,29.97,ENE,68,3.4,4.6,25,0.00,CLR,,0.00,633.0,WeatherDisplay:10.37,2013-10-15 20:27:00,
2013-10-15 13:32:00,76.2,36.8,29.96,North,360,2.8,5.0,24,0.00,CLR,,0.00,635.0,WeatherDisplay:10.37,2013-10-15 20:32:00,
2013-10-15 13:37:00,76.5,35.9,29.96,NNE,19,0.0,3.5,23,0.00,CLR,,0.00,629.0,WeatherDisplay:10.37,2013-10-15 20:37:00,
2013-10-15 13:42:00,76.9,36.3,29.96,East,96,3.3,8.1,23,0.00,CLR,,0.00,624.0,WeatherDisplay:10.37,2013-10-15 20:42:00,
2013-10-15 13:47:00,77.1,35.3,29.96,ENE,69,5.6,10.4,22,0.00,CLR,,0.00,621.0,WeatherDisplay:10.37,2013-10-15 20:47:00,
2013-10-15 13:52:00,77.0,35.2,29.96,ENE,75,6.4,11.5,22,0.00,CLR,,0.00,615.0,WeatherDisplay:10.37,2013-10-15 20:52:00,
2013-10-15 13:57:00,76.9,35.1,29.96,NNE,15,2.1,8.1,22,0.00,CLR,,0.00,606.0,WeatherDisplay:10.37,2013-10-15 20:57:00,
2013-10-15 14:02:00,77.1,35.3,29.96,ENE,77,4.7,6.9,22,0.00,CLR,,0.00,598.0,WeatherDisplay:10.37,2013-10-15 21:02:00,
2013-10-15 14:07:00,77.4,35.6,29.95,NE,38,3.4,9.2,22,0.00,FEW,,0.00,596.0,WeatherDisplay:10.37,2013-10-15 21:07:00,
2013-10-15 14:12:00,77.5,36.8,29.95,NE,36,2.1,4.6,23,0.00,FEW,,0.00,591.0,WeatherDisplay:10.37,2013-10-15 21:12:00,
2013-10-15 14:17:00,77.8,35.9,29.95,ENE,71,1.4,4.6,22,0.00,FEW,,0.00,582.0,WeatherDisplay:10.37,2013-10-15 21:17:00,
2013-10-15 14:22:00,77.8,35.9,29.95,NNE,32,2.3,3.5,22,0.00,FEW,,0.00,575.0,WeatherDisplay:10.37,2013-10-15 21:22:00,
2013-10-15 14:27:00,78.1,36.1,29.95,ENE,75,1.2,3.5,22,0.00,FEW,,0.00,564.0,WeatherDisplay:10.37,2013-10-15 21:27:00,
2013-10-15 14:32:00,78.5,35.3,29.95,ENE,68,1.3,6.9,21,0.00,FEW,,0.00,561.0,WeatherDisplay:10.37,2013-10-15 21:32:00,
2013-10-15 14:37:00,78.5,34.1,29.94,ENE,61,3.5,4.6,20,0.00,FEW,,0.00,554.0,WeatherDisplay:10.37,2013-10-15 21:37:00,
2013-10-15 14:42:00,78.6,35.4,29.95,ESE,121,3.8,5.8,21,0.00,FEW,,0.00,545.0,WeatherDisplay:10.37,2013-10-15 21:42:00,
2013-10-15 14:47:00,78.8,35.5,29.95,North,354,5.8,8.0,21,0.00,FEW,,0.00,534.0,WeatherDisplay:10.37,2013-10-15 21:47:00,
2013-10-15 14:52:00,78.9,35.6,29.95,NE,56,0.2,4.6,21,0.00,FEW,,0.00,527.0,WeatherDisplay:10.37,2013-10-15 21:52:00,
2013-10-15 14:57:00,78.9,34.4,29.94,ESE,113,4.5,9.2,20,0.00,FEW,,0.00,517.0,WeatherDisplay:10.37,2013-10-15 21:57:00,
2013-10-15 15:02:00,78.8,34.3,29.94,East,91,4.4,4.6,20,0.00,FEW,,0.00,504.0,WeatherDisplay:10.37,2013-10-15 22:02:00,
2013-10-15 15:07:00,79.0,35.7,29.94,ESE,106,1.7,4.6,21,0.00,FEW,,0.00,496.0,WeatherDisplay:10.37,2013-10-15 22:07:00,
2013-10-15 15:12:00,79.2,34.6,29.94,ENE,75,4.9,8.1,20,0.00,FEW,,0.00,485.0,WeatherDisplay:10.37,2013-10-15 22:12:00,
2013-10-15 15:17:00,79.2,34.6,29.94,ENE,77,2.4,3.5,20,0.00,FEW,,0.00,473.0,WeatherDisplay:10.37,2013-10-15 22:17:00,
2013-10-15 15:22:00,79.1,34.6,29.94,ENE,63,3.7,6.9,20,0.00,SCT,,0.00,464.0,WeatherDisplay:10.37,2013-10-15 22:22:00,
2013-10-15 15:27:00,79.2,34.6,29.94,ENE,59,2.1,3.5,20,0.00,SCT,,0.00,452.0,WeatherDisplay:10.37,2013-10-15 22:27:00,
2013-10-15 15:32:00,79.5,34.9,29.94,NNE,31,2.6,9.2,20,0.00,SCT,,0.00,439.0,WeatherDisplay:10.37,2013-10-15 22:32:00,
2013-10-15 15:37:00,79.9,35.2,29.94,NNE,27,2.9,5.8,20,0.00,SCT,,0.00,427.0,WeatherDisplay:10.37,2013-10-15 22:37:00,
2013-10-15 15:42:00,79.8,35.1,29.93,East,89,2.3,3.5,20,0.00,SCT,,0.00,415.0,WeatherDisplay:10.37,2013-10-15 22:42:00,
2013-10-15 15:47:00,79.5,38.4,29.93,West,264,1.0,5.8,23,0.00,SCT,,0.00,399.0,WeatherDisplay:10.37,2013-10-15 22:47:00,
2013-10-15 15:52:00,79.0,38.0,29.93,North,10,5.0,9.2,23,0.00,SCT,,0.00,392.0,WeatherDisplay:10.37,2013-10-15 22:52:00,
2013-10-15 15:57:00,78.2,38.4,29.94,North,10,6.4,10.4,24,0.00,SCT,,0.00,376.0,WeatherDisplay:10.37,2013-10-15 22:57:00,
2013-10-15 16:02:00,77.8,40.2,29.93,NNW,343,5.2,5.8,26,0.00,SCT,,0.00,366.0,WeatherDisplay:10.37,2013-10-15 23:02:00,
2013-10-15 16:08:00,77.5,39.9,29.93,NW,307,4.7,8.1,26,0.00,SCT,,0.00,353.0,WeatherDisplay:10.37,2013-10-15 23:08:00,
2013-10-15 16:13:00,77.3,40.7,29.93,NW,326,0.6,5.8,27,0.00,SCT,,0.00,343.0,WeatherDisplay:10.37,2013-10-15 23:13:00,
2013-10-15 16:18:00,77.6,40.0,29.93,West,273,0.8,5.0,26,0.00,SCT,,0.00,329.0,WeatherDisplay:10.37,2013-10-15 23:18:00,
2013-10-15 16:23:00,77.6,41.0,29.93,WNW,300,5.2,10.4,27,0.00,SCT,,0.00,311.0,WeatherDisplay:10.37,2013-10-15 23:23:00,
2013-10-15 16:28:00,77.0,40.4,29.93,North,10,3.7,8.1,27,0.00,SCT,,0.00,299.0,WeatherDisplay:10.37,2013-10-15 23:28:00,
2013-10-15 16:33:00,76.6,39.1,29.93,NW,310,3.9,8.0,26,0.00,SCT,,0.00,285.0,WeatherDisplay:10.37,2013-10-15 23:33:00,
2013-10-15 16:38:00,76.2,38.8,29.93,WNW,284,3.9,6.9,26,0.00,SCT,,0.00,269.0,WeatherDisplay:10.37,2013-10-15 23:38:00,
2013-10-15 16:43:00,75.8,38.5,29.93,North,10,3.0,4.6,26,0.00,SCT,,0.00,257.0,WeatherDisplay:10.37,2013-10-15 23:43:00,
2013-10-15 16:48:00,75.4,38.1,29.93,WNW,283,4.8,5.8,26,0.00,SCT,,0.00,243.0,WeatherDisplay:10.37,2013-10-15 23:48:00,
2013-10-15 16:53:00,75.2,38.9,29.93,WNW,285,1.1,5.8,27,0.00,SCT,,0.00,230.0,WeatherDisplay:10.37,2013-10-15 23:53:00,
2013-10-15 16:58:00,75.1,38.8,29.93,WNW,285,3.0,9.2,27,0.00,SCT,,0.00,218.0,WeatherDisplay:10.37,2013-10-15 23:58:00,
2013-10-15 17:03:00,74.6,38.4,29.93,WNW,290,1.9,3.5,27,0.00,SCT,,0.00,204.0,WeatherDisplay:10.37,2013-10-16 00:03:00,
2013-10-15 17:08:00,74.2,38.1,29.93,WNW,287,3.1,4.6,27,0.00,BKN,,0.00,190.0,WeatherDisplay:10.37,2013-10-16 00:08:00,
2013-10-15 17:13:00,74.1,38.9,29.93,West,267,3.1,6.0,28,0.00,BKN,,0.00,178.0,WeatherDisplay:10.37,2013-10-16 00:13:00,
2013-10-15 17:18:00,73.9,38.7,29.93,WNW,291,5.1,8.1,28,0.00,BKN,,0.00,163.0,WeatherDisplay:10.37,2013-10-16 00:18:00,
2013-10-15 17:23:00,73.5,38.4,29.93,WNW,294,6.7,11.5,28,0.00,BKN,,0.00,149.0,WeatherDisplay:10.37,2013-10-16 00:23:00,
2013-10-15 17:28:00,72.7,36.8,29.93,North,10,5.0,7.0,27,0.00,BKN,,0.00,137.0,WeatherDisplay:10.37,2013-10-16 00:28:00,
2013-10-15 17:33:00,72.5,37.5,29.93,WNW,284,4.8,9.0,28,0.00,BKN,,0.00,125.0,WeatherDisplay:10.37,2013-10-16 00:33:00,
2013-10-15 17:38:00,72.4,37.4,29.93,West,279,4.6,7.0,28,0.00,BKN,,0.00,107.0,WeatherDisplay:10.37,2013-10-16 00:38:00,
2013-10-15 17:43:00,72.0,37.1,29.93,West,275,3.3,8.1,28,0.00,BKN,,0.00,91.0,WeatherDisplay:10.37,2013-10-16 00:43:00,
2013-10-15 17:48:00,71.5,36.7,29.93,North,10,5.5,11.5,28,0.00,BKN,,0.00,76.0,WeatherDisplay:10.37,2013-10-16 00:48:00,
2013-10-15 17:53:00,70.8,37.0,29.93,WNW,287,5.4,9.2,29,0.00,BKN,,0.00,62.0,WeatherDisplay:10.37,2013-10-16 00:53:00,
2013-10-15 17:58:00,70.5,36.7,29.93,WNW,294,3.0,6.9,29,0.00,BKN,,0.00,49.0,WeatherDisplay:10.37,2013-10-16 00:58:00,
2013-10-15 18:03:00,70.4,37.5,29.93,NW,306,1.0,2.0,30,0.00,BKN,,0.00,37.0,WeatherDisplay:10.37,2013-10-16 01:03:00,
2013-10-15 18:08:00,70.4,37.5,29.93,NW,309,0.0,2.3,30,0.00,BKN,,0.00,28.0,WeatherDisplay:10.37,2013-10-16 01:08:00,
2013-10-15 18:13:00,70.3,37.4,29.93,WNW,288,1.2,2.3,30,0.00,,,0.00,16.0,WeatherDisplay:10.37,2013-10-16 01:13:00,
2013-10-15 18:18:00,70.1,37.2,29.93,NNW,348,0.1,1.0,30,0.00,,,0.00,12.0,WeatherDisplay:10.37,2013-10-16 01:18:00,
2013-10-15 18:23:00,69.6,36.8,29.93,NNW,328,0.5,3.5,30,0.00,,,0.00,9.0,WeatherDisplay:10.37,2013-10-16 01:23:00,
2013-10-15 18:28:00,69.3,37.3,29.93,NW,321,0.1,1.2,31,0.00,,,0.00,7.0,WeatherDisplay:10.37,2013-10-16 01:28:00,
2013-10-15 18:33:00,69.0,37.1,29.93,NW,321,0.0,1.2,31,0.00,,,0.00,5.0,WeatherDisplay:10.37,2013-10-16 01:33:00,
2013-10-15 18:38:00,68.8,37.7,29.93,NW,321,0.0,0.0,32,0.00,,,0.00,0.0,WeatherDisplay:10.37,2013-10-16 01:38:00,
2013-10-15 18:43:00,68.6,37.5,29.94,NW,321,0.2,1.0,32,0.00,,,0.00,0.0,WeatherDisplay:10.37,2013-10-16 01:43:00,
2013-10-15 18:48:00,68.4,38.2,29.93,NNW,348,0.0,0.0,33,0.00,,,0.00,0.0,WeatherDisplay:10.37,2013-10-16 01:48:00,
2013-10-15 18:53:00,68.1,37.9,29.93,NNW,347,0.2,1.0,33,0.00,,,0.00,0.0,WeatherDisplay:10.37,2013-10-16 01:53:00,
2013-10-15 18:58:00,67.9,38.5,29.93,NNW,348,0.0,0.0,34,0.00,,,0.00,0.0,WeatherDisplay:10.37,2013-10-16 01:58:00,
2013-10-15 19:03:00,67.7,38.3,29.93,NNW,347,0.0,0.0,34,0.00,,,0.00,0.0,WeatherDisplay:10.37,2013-10-16 02:03:00,
2013-10-15 19:08:00,67.7,39.8,29.93,NNW,347,0.0,0.0,36,0.00,,,0.00,0.0,WeatherDisplay:10.37,2013-10-16 02:08:00,
2013-10-15 19:13:00,67.5,38.9,29.93,NNW,347,0.0,0.0,35,0.00,,,0.00,0.0,WeatherDisplay:10.37,2013-10-16 02:13:00,
2013-10-15 19:18:00,67.4,38.8,29.94,NNW,348,0.0,0.0,35,0.00,,,0.00,0.0,WeatherDisplay:10.37,2013-10-16 02:18:00,
2013-10-15 19:23:00,67.3,38.7,29.94,NNW,347,0.0,0.0,35,0.00,,,0.00,0.0,WeatherDisplay:10.37,2013-10-16 02:23:00,
2013-10-15 19:28:00,67.2,38.6,29.94,NNW,347,0.0,0.0,35,0.00,,,0.00,0.0,WeatherDisplay:10.37,2013-10-16 02:28:00,
2013-10-15 19:33:00,67.2,38.6,29.94,NNW,346,0.2,1.2,35,0.00,,,0.00,0.0,WeatherDisplay:10.37,2013-10-16 02:33:00,
2013-10-15 19:38:00,67.1,38.5,29.94,NNW,346,0.0,0.0,35,0.00,,,0.00,0.0,WeatherDisplay:10.37,2013-10-16 02:38:00,
2013-10-15 19:43:00,67.1,38.5,29.94,North,5,2.0,2.3,35,0.00,,,0.00,0.0,WeatherDisplay:10.37,2013-10-16 02:43:00,
2013-10-15 19:48:00,67.3,38.0,29.94,North,5,0.8,3.5,34,0.00,,,0.00,0.0,WeatherDisplay:10.37,2013-10-16 02:48:00,
2013-10-15 19:53:00,67.4,38.0,29.94,North,5,0.8,2.3,34,0.00,,,0.00,0.0,WeatherDisplay:10.37,2013-10-16 02:53:00,
2013-10-15 19:58:00,67.4,38.0,29.94,North,359,0.0,0.0,34,0.00,,,0.00,0.0,WeatherDisplay:10.37,2013-10-16 02:58:00,
2013-10-15 20:03:00,67.3,37.2,29.94,North,359,1.4,4.0,33,0.00,,,0.00,0.0,WeatherDisplay:10.37,2013-10-16 03:03:00,
2013-10-15 20:08:00,67.4,36.5,29.94,North,358,1.7,3.5,32,0.00,,,0.00,0.0,WeatherDisplay:10.37,2013-10-16 03:08:00,
2013-10-15 20:13:00,67.5,37.4,29.94,North,358,0.3,1.2,33,0.00,,,0.00,0.0,WeatherDisplay:10.37,2013-10-16 03:13:00,
2013-10-15 20:18:00,67.5,36.6,29.94,North,358,0.9,1.2,32,0.00,,,0.00,0.0,WeatherDisplay:10.37,2013-10-16 03:18:00,
2013-10-15 20:23:00,67.5,35.8,29.94,NW,310,0.6,3.5,31,0.00,,,0.00,0.0,WeatherDisplay:10.37,2013-10-16 03:23:00,
2013-10-15 20:28:00,67.6,35.9,29.95,NNW,335,0.0,0.0,31,0.00,,,0.00,0.0,WeatherDisplay:10.37,2013-10-16 03:28:00,
2013-10-15 20:33:00,67.5,35.8,29.95,NNW,335,0.0,0.0,31,0.00,,,0.00,0.0,WeatherDisplay:10.37,2013-10-16 03:33:00,
2013-10-15 20:38:00,67.4,35.7,29.95,NNW,335,0.0,0.0,31,0.00,,,0.00,0.0,WeatherDisplay:10.37,2013-10-16 03:38:00,
2013-10-15 20:44:00,67.2,36.3,29.95,NNW,335,0.0,0.0,32,0.00,,,0.00,0.0,WeatherDisplay:10.37,2013-10-16 03:44:00,
2013-10-15 20:49:00,67.0,36.1,29.95,NNW,335,0.0,0.0,32,0.00,,,0.00,0.0,WeatherDisplay:10.37,2013-10-16 03:49:00,
2013-10-15 20:54:00,66.7,36.7,29.95,NNW,335,0.0,0.0,33,0.00,,,0.00,0.0,WeatherDisplay:10.37,2013-10-16 03:54:00,
2013-10-15 20:59:00,66.5,37.2,29.95,NNW,335,0.0,0.0,34,0.00,,,0.00,0.0,WeatherDisplay:10.37,2013-10-16 03:59:00,
2013-10-15 21:01:00,66.4,36.4,29.95,NNW,335,0.0,0.0,33,0.00,,,0.00,0.0,WeatherDisplay:10.37,2013-10-16 04:01:00,
2013-10-15 21:06:00,66.3,37.1,29.95,NNW,335,0.0,0.0,34,0.00,,,0.00,0.0,WeatherDisplay:10.37,2013-10-16 04:06:00,
2013-10-15 21:11:00,66.1,36.1,29.95,NNW,335,0.0,0.0,33,0.00,,,0.00,0.0,WeatherDisplay:10.37,2013-10-16 04:11:00,
2013-10-15 21:16:00,66.0,37.5,29.95,NNW,335,0.0,0.0,35,0.00,,,0.00,0.0,WeatherDisplay:10.37,2013-10-16 04:16:00,
2013-10-15 21:21:00,65.7,37.3,29.95,NNW,335,0.0,0.0,35,0.00,,,0.00,0.0,WeatherDisplay:10.37,2013-10-16 04:21:00,
2013-10-15 21:26:00,65.5,37.1,29.95,NNW,336,0.0,0.0,35,0.00,,,0.00,0.0,WeatherDisplay:10.37,2013-10-16 04:26:00,
2013-10-15 21:31:00,65.3,36.9,29.95,NNW,336,0.0,0.0,35,0.00,,,0.00,0.0,WeatherDisplay:10.37,2013-10-16 04:31:00,
2013-10-15 21:36:00,65.1,37.5,29.96,NNW,336,0.0,0.0,36,0.00,,,0.00,0.0,WeatherDisplay:10.37,2013-10-16 04:36:00,
2013-10-15 21:41:00,64.8,37.2,29.96,NNW,335,0.0,0.0,36,0.00,,,0.00,0.0,WeatherDisplay:10.37,2013-10-16 04:41:00,
2013-10-15 21:46:00,64.5,38.3,29.96,NNW,335,0.0,0.0,38,0.00,,,0.00,0.0,WeatherDisplay:10.37,2013-10-16 04:46:00,
2013-10-15 21:51:00,64.1,38.6,29.96,NNW,335,0.0,0.0,39,0.00,,,0.00,0.0,WeatherDisplay:10.37,2013-10-16 04:51:00,
2013-10-15 21:56:00,63.7,38.9,29.96,NNW,335,0.0,0.0,40,0.00,,,0.00,0.0,WeatherDisplay:10.37,2013-10-16 04:56:00,
2013-10-15 22:01:00,63.3,39.2,29.96,NNW,335,0.0,0.0,41,0.00,,,0.00,0.0,WeatherDisplay:10.37,2013-10-16 05:01:00,
2013-10-15 22:07:00,62.9,40.0,29.96,NNW,335,0.0,0.0,43,0.00,,,0.00,0.0,WeatherDisplay:10.37,2013-10-16 05:07:00,
2013-10-15 22:12:00,62.6,39.2,29.97,North,10,0.0,2.0,42,0.00,,,0.00,0.0,WeatherDisplay:10.37,2013-10-16 05:12:00,
2013-10-15 22:17:00,62.4,38.4,29.96,WNW,283,1.8,3.5,41,0.00,,,0.00,0.0,WeatherDisplay:10.37,2013-10-16 05:17:00,
2013-10-15 22:22:00,62.5,39.1,29.96,WNW,283,0.0,0.0,42,0.00,,,0.00,0.0,WeatherDisplay:10.37,2013-10-16 05:22:00,
2013-10-15 22:27:00,62.4,39.0,29.96,WNW,283,0.0,0.0,42,0.00,,,0.00,0.0,WeatherDisplay:10.37,2013-10-16 05:27:00,
2013-10-15 22:32:00,62.2,38.8,29.96,WNW,283,0.0,0.0,42,0.00,,,0.00,0.0,WeatherDisplay:10.37,2013-10-16 05:32:00,
2013-10-15 22:37:00,62.2,38.8,29.96,WNW,284,0.0,0.0,42,0.00,,,0.00,0.0,WeatherDisplay:10.37,2013-10-16 05:37:00,
2013-10-15 22:42:00,62.1,39.3,29.96,WNW,284,0.0,0.0,43,0.00,,,0.00,0.0,WeatherDisplay:10.37,2013-10-16 05:42:00,
2013-10-15 22:47:00,62.1,39.3,29.96,WNW,283,0.0,0.0,43,0.00,,,0.00,0.0,WeatherDisplay:10.37,2013-10-16 05:47:00,
2013-10-15 22:52:00,62.0,39.8,29.96,WNW,283,0.8,2.3,44,0.00,,,0.00,0.0,WeatherDisplay:10.37,2013-10-16 05:52:00,
2013-10-15 22:57:00,61.8,39.6,29.96,WSW,248,3.0,4.6,44,0.00,,,0.00,0.0,WeatherDisplay:10.37,2013-10-16 05:57:00,
2013-10-15 23:02:00,61.5,39.4,29.96,SW,231,3.6,5.8,44,0.00,,,0.00,0.0,WeatherDisplay:10.37,2013-10-16 06:02:00,
2013-10-15 23:07:00,61.4,39.9,29.96,WSW,237,1.6,3.5,45,0.00,,,0.00,0.0,WeatherDisplay:10.37,2013-10-16 06:07:00,
2013-10-15 23:12:00,61.4,39.9,29.97,WSW,239,0.3,1.2,45,0.00,,,0.00,0.0,WeatherDisplay:10.37,2013-10-16 06:12:00,
2013-10-15 23:17:00,61.3,39.8,29.97,WSW,238,0.0,0.0,45,0.00,,,0.00,0.0,WeatherDisplay:10.37,2013-10-16 06:17:00,
2013-10-15 23:22:00,61.1,40.1,29.97,WSW,237,0.0,0.0,46,0.00,,,0.00,0.0,WeatherDisplay:10.37,2013-10-16 06:22:00,
2013-10-15 23:27:00,60.8,40.4,29.97,WSW,238,0.4,2.3,47,0.00,,,0.00,0.0,WeatherDisplay:10.37,2013-10-16 06:27:00,
2013-10-15 23:32:00,60.5,40.2,29.97,WSW,238,0.0,0.0,47,0.00,,,0.00,0.0,WeatherDisplay:10.37,2013-10-16 06:32:00,
2013-10-15 23:37:00,60.2,39.9,29.97,WSW,239,0.0,0.0,47,0.00,,,0.00,0.0,WeatherDisplay:10.37,2013-10-16 06:37:00,
2013-10-15 23:42:00,60.0,39.7,29.97,WSW,237,0.0,0.0,47,0.00,,,0.00,0.0,WeatherDisplay:10.37,2013-10-16 06:42:00,
2013-10-15 23:47:00,60.0,40.2,29.97,WSW,237,0.0,0.0,48,0.00,,,0.00,0.0,WeatherDisplay:10.37,2013-10-16 06:47:00,
2013-10-15 23:52:00,59.9,40.1,29.97,WSW,238,0.0,0.0,48,0.00,,,0.00,0.0,WeatherDisplay:10.37,2013-10-16 06:52:00,
2013-10-15 23:57:00,59.8,40.6,29.97,WSW,238,0.0,0.0,49,0.00,,,0.00,0.0,WeatherDisplay:10.37,2013-10-16 06:57:00,